OpenBCM V1.08-5-g2f4a (Linux)

Packet Radio Mailbox

IZ3LSV

[San Dona' di P. JN]

 Login: GUEST





  
CX2SA  > KEPS     16.08.13 03:47l 220 Lines 5763 Bytes #999 (0) @ WW
BID : ORB13227.W
Read: GUEST
Subj: Orbital Elements  13227.WEATHER
Path: IZ3LSV<IQ5KG<IK1NHL<CX2SA
Sent: 130816/0239Z @:CX2SA.SAL.URY.SA #:9873 [Salto] FBB7.00e $:ORB13227.W
From: CX2SA@CX2SA.SAL.URY.SA
To  : KEPS@AMSAT


HR AMSAT ORBITAL ELEMENTS FOR WEATHER SATELLITES
FROM WA5QGD FORT WORTH,TX August 15, 2013
BID: ORB13227.W
TO ALL RADIO AMATEURS BT

Satellite: NOAA-10
Catalog number: 16969
Epoch time:      13227.40841641
Element set:     462
Inclination:      098.5430 deg
RA of node:       253.9490 deg
Eccentricity:    0.0013288
Arg of perigee:   075.4125 deg
Mean anomaly:     337.3195 deg
Mean motion:   14.27657269 rev/day
Decay rate:        6.6e-07 rev/day^2
Epoch rev:           40039
Checksum:              313

Satellite: NOAA-11
Catalog number: 19531
Epoch time:      13227.42178014
Element set:     471
Inclination:      098.7087 deg
RA of node:       309.0516 deg
Eccentricity:    0.0012371
Arg of perigee:   093.8958 deg
Mean anomaly:     318.5259 deg
Mean motion:   14.15024495 rev/day
Decay rate:        3.9e-07 rev/day^2
Epoch rev:           28450
Checksum:              304

Satellite: NOAA-12
Catalog number: 21263
Epoch time:      13227.50867777
Element set:     938
Inclination:      098.6948 deg
RA of node:       252.4172 deg
Eccentricity:    0.0014543
Arg of perigee:   051.5397 deg
Mean anomaly:     108.1792 deg
Mean motion:   14.25580819 rev/day
Decay rate:        4.7e-07 rev/day^2
Epoch rev:           15700
Checksum:              319

Satellite: MET-3/5
Catalog number: 21655
Epoch time:      13227.42858846
Element set:     760
Inclination:      082.5548 deg
RA of node:       212.4336 deg
Eccentricity:    0.0012737
Arg of perigee:   347.3572 deg
Mean anomaly:     012.7229 deg
Mean motion:   13.17050342 rev/day
Decay rate:       -9.2e-07 rev/day^2
Epoch rev:            5773
Checksum:              298

Satellite: MET-2/21
Catalog number: 22782
Epoch time:      13227.48276405
Element set:     817
Inclination:      082.5467 deg
RA of node:       055.8692 deg
Eccentricity:    0.0023090
Arg of perigee:   045.9197 deg
Mean anomaly:     345.6323 deg
Mean motion:   13.83710058 rev/day
Decay rate:        3.6e-07 rev/day^2
Epoch rev:             784
Checksum:              310

Satellite: OKEAN-4
Catalog number: 23317
Epoch time:      13227.15920139
Element set:     296
Inclination:      082.5418 deg
RA of node:       354.5894 deg
Eccentricity:    0.0021467
Arg of perigee:   035.5381 deg
Mean anomaly:     317.2640 deg
Mean motion:   14.84582022 rev/day
Decay rate:       6.71e-06 rev/day^2
Epoch rev:            1768
Checksum:              298

Satellite: NOAA-14
Catalog number: 23455
Epoch time:      13227.36963975
Element set:     417
Inclination:      098.8012 deg
RA of node:       310.9070 deg
Eccentricity:    0.0009685
Arg of perigee:   183.3197 deg
Mean anomaly:     218.4475 deg
Mean motion:   14.13916063 rev/day
Decay rate:        5.9e-07 rev/day^2
Epoch rev:           96073
Checksum:              322

Satellite: NOAA-15
Catalog number: 25338
Epoch time:      13227.87888878
Element set:     839
Inclination:      098.7291 deg
RA of node:       217.7690 deg
Eccentricity:    0.0009943
Arg of perigee:   320.4362 deg
Mean anomaly:     039.6580 deg
Mean motion:   14.25254452 rev/day
Decay rate:       1.21e-06 rev/day^2
Epoch rev:           79335
Checksum:              343

Satellite: RESURS
Catalog number: 25394
Epoch time:      13227.45806975
Element set:     445
Inclination:      098.3680 deg
RA of node:       200.4733 deg
Eccentricity:    0.0002609
Arg of perigee:   089.1237 deg
Mean anomaly:     070.1312 deg
Mean motion:   14.24333952 rev/day
Decay rate:       -4.4e-07 rev/day^2
Epoch rev:           78479
Checksum:              299

Satellite: FENGYUN1
Catalog number: 25730
Epoch time:      13226.49145635
Element set:     939
Inclination:      098.8814 deg
RA of node:       185.2983 deg
Eccentricity:    0.0023980
Arg of perigee:   244.2477 deg
Mean anomaly:     210.2318 deg
Mean motion:   14.10598671 rev/day
Decay rate:       3.96e-06 rev/day^2
Epoch rev:           73426
Checksum:              324

Satellite: OKEAN-0
Catalog number: 25860
Epoch time:      13227.43522346
Element set:      20
Inclination:      097.9963 deg
RA of node:       189.1116 deg
Eccentricity:    0.0001008
Arg of perigee:   080.7205 deg
Mean anomaly:     075.9098 deg
Mean motion:   14.74665919 rev/day
Decay rate:       3.38e-06 rev/day^2
Epoch rev:           75708
Checksum:              309

Satellite: NOAA-16
Catalog number: 26536
Epoch time:      13227.25277748
Element set:     324
Inclination:      099.0375 deg
RA of node:       280.5883 deg
Eccentricity:    0.0009764
Arg of perigee:   333.2955 deg
Mean anomaly:     068.0266 deg
Mean motion:   14.12905843 rev/day
Decay rate:       1.29e-06 rev/day^2
Epoch rev:           66491
Checksum:              331

Satellite: NOAA-17
Catalog number: 27453
Epoch time:      13227.50511925
Element set:     235
Inclination:      098.3129 deg
RA of node:       238.4419 deg
Eccentricity:    0.0011290
Arg of perigee:   358.1574 deg
Mean anomaly:     155.1256 deg
Mean motion:   14.24610652 rev/day
Decay rate:        6.6e-07 rev/day^2
Epoch rev:           57916
Checksum:              298

Satellite: NOAA-18
Catalog number: 28654
Epoch time:      13227.48151075
Element set:     722
Inclination:      099.1058 deg
RA of node:       196.5686 deg
Eccentricity:    0.0015036
Arg of perigee:   046.0938 deg
Mean anomaly:     100.5041 deg
Mean motion:   14.11849441 rev/day
Decay rate:       2.60e-06 rev/day^2
Epoch rev:           42442
Checksum:              291

Satellite: NOAA-19
Catalog number: 33591
Epoch time:      13227.44138796
Element set:     904
Inclination:      098.9063 deg
RA of node:       169.0483 deg
Eccentricity:    0.0012949
Arg of perigee:   261.8607 deg
Mean anomaly:     236.1934 deg
Mean motion:   14.11538320 rev/day
Decay rate:        1.0e-07 rev/day^2
Epoch rev:           23285
Checksum:              310



Read previous mail | Read next mail


 22.12.2024 05:09:43lGo back Go up